<?xml version="1.0" encoding="UTF-8" standalone="no" ?>
<gpx xmlns="http://www.topografix.com/GPX/1/1" xmlns:xsi="http://www.w3.org/2001/XMLSchema-instance" xsi:schemaLocation="http://www.topografix.com/GPX/1/1 http://www.topografix.com/GPX/1/1/gpx.xsd" version="1.1" creator="VisuGPX - https://www.visugpx.com">
  <metadata>
    <name>Besancon - Baume les Messieurs Cyclotourisme</name>
    <desc><![CDATA[Un trajet sans emprunter la nationale ]]></desc>
  </metadata>
  <trk>
    <name><![CDATA[Import from KML]]></name>
    <trkseg>
      <trkpt lat="47.25125" lon="6.0377">
        <ele>274</ele>
        <time>2012-07-15T17:06:41.1726493Z</time>
      </trkpt>
      <trkpt lat="47.24918" lon="6.0365">
        <ele>262.9</ele>
        <time>2012-07-15T17:06:41.1726493Z</time>
      </trkpt>
      <trkpt lat="47.24796" lon="6.0365">
        <ele>257</ele>
        <time>2012-07-15T17:06:41.1726493Z</time>
      </trkpt>
      <trkpt lat="47.24729" lon="6.0368">
        <ele>256.4</ele>
        <time>2012-07-15T17:06:41.1726493Z</time>
      </trkpt>
      <trkpt lat="47.24585" lon="6.03532">
        <ele>254.7</ele>
        <time>2012-07-15T17:06:41.1726493Z</time>
      </trkpt>
      <trkpt lat="47.24224" lon="6.03342">
        <ele>250.1</ele>
        <time>2012-07-15T17:06:41.1726493Z</time>
      </trkpt>
      <trkpt lat="47.24171" lon="6.03392">
        <ele>249.1</ele>
        <time>2012-07-15T17:06:41.1726493Z</time>
      </trkpt>
      <trkpt lat="47.23983" lon="6.03466">
        <ele>249</ele>
        <time>2012-07-15T17:06:41.1726493Z</time>
      </trkpt>
      <trkpt lat="47.2383" lon="6.03606">
        <ele>249</ele>
        <time>2012-07-15T17:06:41.1726493Z</time>
      </trkpt>
      <trkpt lat="47.23668" lon="6.03586">
        <ele>246.4</ele>
        <time>2012-07-15T17:06:41.1726493Z</time>
      </trkpt>
      <trkpt lat="47.23468" lon="6.03641">
        <ele>247</ele>
        <time>2012-07-15T17:06:41.1726493Z</time>
      </trkpt>
      <trkpt lat="47.23345" lon="6.03721">
        <ele>245.6</ele>
        <time>2012-07-15T17:06:41.1726493Z</time>
      </trkpt>
      <trkpt lat="47.23452" lon="6.03488">
        <ele>244.4</ele>
        <time>2012-07-15T17:06:41.1726493Z</time>
      </trkpt>
      <trkpt lat="47.23218" lon="6.03593">
        <ele>244.9</ele>
        <time>2012-07-15T17:06:41.1726493Z</time>
      </trkpt>
      <trkpt lat="47.2311" lon="6.03656">
        <ele>244.2</ele>
        <time>2012-07-15T17:06:41.1726493Z</time>
      </trkpt>
      <trkpt lat="47.23143" lon="6.03588">
        <ele>246.7</ele>
        <time>2012-07-15T17:06:41.1726493Z</time>
      </trkpt>
      <trkpt lat="47.22982" lon="6.0305">
        <ele>244</ele>
        <time>2012-07-15T17:06:41.1726493Z</time>
      </trkpt>
      <trkpt lat="47.22835" lon="6.03149">
        <ele>240.5</ele>
        <time>2012-07-15T17:06:41.1726493Z</time>
      </trkpt>
      <trkpt lat="47.22717" lon="6.03249">
        <ele>240.9</ele>
        <time>2012-07-15T17:06:41.1726493Z</time>
      </trkpt>
      <trkpt lat="47.22691" lon="6.03131">
        <ele>240</ele>
        <time>2012-07-15T17:06:41.1726493Z</time>
      </trkpt>
      <trkpt lat="47.22565" lon="6.03127">
        <ele>238.6</ele>
        <time>2012-07-15T17:06:41.1726493Z</time>
      </trkpt>
      <trkpt lat="47.22456" lon="6.03043">
        <ele>238.9</ele>
        <time>2012-07-15T17:06:41.1726493Z</time>
      </trkpt>
      <trkpt lat="47.2237" lon="6.02897">
        <ele>239.5</ele>
        <time>2012-07-15T17:06:41.1726493Z</time>
      </trkpt>
      <trkpt lat="47.22235" lon="6.02761">
        <ele>239.1</ele>
        <time>2012-07-15T17:06:41.1726493Z</time>
      </trkpt>
      <trkpt lat="47.22118" lon="6.02515">
        <ele>238.4</ele>
        <time>2012-07-15T17:06:41.1726493Z</time>
      </trkpt>
      <trkpt lat="47.22027" lon="6.02265">
        <ele>239.3</ele>
        <time>2012-07-15T17:06:41.1726493Z</time>
      </trkpt>
      <trkpt lat="47.21943" lon="6.0212">
        <ele>237.2</ele>
        <time>2012-07-15T17:06:41.1726493Z</time>
      </trkpt>
      <trkpt lat="47.21862" lon="6.01949">
        <ele>236.8</ele>
        <time>2012-07-15T17:06:41.1726493Z</time>
      </trkpt>
      <trkpt lat="47.21815" lon="6.01767">
        <ele>237.2</ele>
        <time>2012-07-15T17:06:41.1726493Z</time>
      </trkpt>
      <trkpt lat="47.21769" lon="6.0132">
        <ele>236.7</ele>
        <time>2012-07-15T17:06:41.1726493Z</time>
      </trkpt>
      <trkpt lat="47.21775" lon="6.006">
        <ele>238.1</ele>
        <time>2012-07-15T17:06:41.1726493Z</time>
      </trkpt>
      <trkpt lat="47.21667" lon="6.00334">
        <ele>238.1</ele>
        <time>2012-07-15T17:06:41.1726493Z</time>
      </trkpt>
      <trkpt lat="47.2155" lon="6.00113">
        <ele>238.5</ele>
        <time>2012-07-15T17:06:41.1726493Z</time>
      </trkpt>
      <trkpt lat="47.21442" lon="5.99992">
        <ele>240.3</ele>
        <time>2012-07-15T17:06:41.1726493Z</time>
      </trkpt>
      <trkpt lat="47.21249" lon="5.99792">
        <ele>236.9</ele>
        <time>2012-07-15T17:06:41.1726493Z</time>
      </trkpt>
      <trkpt lat="47.2117" lon="5.99683">
        <ele>239.8</ele>
        <time>2012-07-15T17:06:41.1726493Z</time>
      </trkpt>
      <trkpt lat="47.20833" lon="5.99419">
        <ele>236.9</ele>
        <time>2012-07-15T17:06:41.1726493Z</time>
      </trkpt>
      <trkpt lat="47.20716" lon="5.99343">
        <ele>236.6</ele>
        <time>2012-07-15T17:06:41.1726493Z</time>
      </trkpt>
      <trkpt lat="47.20608" lon="5.99191">
        <ele>237</ele>
        <time>2012-07-15T17:06:41.1726493Z</time>
      </trkpt>
      <trkpt lat="47.20399" lon="5.98971">
        <ele>237</ele>
        <time>2012-07-15T17:06:41.1726493Z</time>
      </trkpt>
      <trkpt lat="47.2023" lon="5.98751">
        <ele>236.3</ele>
        <time>2012-07-15T17:06:41.1726493Z</time>
      </trkpt>
      <trkpt lat="47.20109" lon="5.98512">
        <ele>236.4</ele>
        <time>2012-07-15T17:06:41.1726493Z</time>
      </trkpt>
      <trkpt lat="47.19991" lon="5.98189">
        <ele>235.7</ele>
        <time>2012-07-15T17:06:41.1726493Z</time>
      </trkpt>
      <trkpt lat="47.2001" lon="5.97798">
        <ele>237.1</ele>
        <time>2012-07-15T17:06:41.1726493Z</time>
      </trkpt>
      <trkpt lat="47.20005" lon="5.97408">
        <ele>236.4</ele>
        <time>2012-07-15T17:06:41.1726493Z</time>
      </trkpt>
      <trkpt lat="47.20079" lon="5.97123">
        <ele>239.1</ele>
        <time>2012-07-15T17:06:41.1726493Z</time>
      </trkpt>
      <trkpt lat="47.20087" lon="5.96704">
        <ele>235.2</ele>
        <time>2012-07-15T17:06:41.1726493Z</time>
      </trkpt>
      <trkpt lat="47.20123" lon="5.96442">
        <ele>238.8</ele>
        <time>2012-07-15T17:06:41.1726493Z</time>
      </trkpt>
      <trkpt lat="47.2015" lon="5.96252">
        <ele>236</ele>
        <time>2012-07-15T17:06:41.1726493Z</time>
      </trkpt>
      <trkpt lat="47.19908" lon="5.96229">
        <ele>234.6</ele>
        <time>2012-07-15T17:06:41.1726493Z</time>
      </trkpt>
      <trkpt lat="47.19862" lon="5.96044">
        <ele>234</ele>
        <time>2012-07-15T17:06:41.1726493Z</time>
      </trkpt>
      <trkpt lat="47.19754" lon="5.95946">
        <ele>235</ele>
        <time>2012-07-15T17:06:41.1726493Z</time>
      </trkpt>
      <trkpt lat="47.19583" lon="5.95933">
        <ele>233.6</ele>
        <time>2012-07-15T17:06:41.1726493Z</time>
      </trkpt>
      <trkpt lat="47.19404" lon="5.9596">
        <ele>234.3</ele>
        <time>2012-07-15T17:06:41.1726493Z</time>
      </trkpt>
      <trkpt lat="47.19249" lon="5.9618">
        <ele>234</ele>
        <time>2012-07-15T17:06:41.1726493Z</time>
      </trkpt>
      <trkpt lat="47.19091" lon="5.96401">
        <ele>233.5</ele>
        <time>2012-07-15T17:06:41.1726493Z</time>
      </trkpt>
      <trkpt lat="47.18834" lon="5.96415">
        <ele>236.8</ele>
        <time>2012-07-15T17:06:41.1726493Z</time>
      </trkpt>
      <trkpt lat="47.18591" lon="5.96186">
        <ele>241.1</ele>
        <time>2012-07-15T17:06:41.1726493Z</time>
      </trkpt>
      <trkpt lat="47.18365" lon="5.95789">
        <ele>234</ele>
        <time>2012-07-15T17:06:41.1726493Z</time>
      </trkpt>
      <trkpt lat="47.18228" lon="5.95482">
        <ele>234.8</ele>
        <time>2012-07-15T17:06:41.1726493Z</time>
      </trkpt>
      <trkpt lat="47.18093" lon="5.94933">
        <ele>234.4</ele>
        <time>2012-07-15T17:06:41.1726493Z</time>
      </trkpt>
      <trkpt lat="47.18002" lon="5.94642">
        <ele>232</ele>
        <time>2012-07-15T17:06:41.1726493Z</time>
      </trkpt>
      <trkpt lat="47.17716" lon="5.94332">
        <ele>231.1</ele>
        <time>2012-07-15T17:06:41.1726493Z</time>
      </trkpt>
      <trkpt lat="47.17511" lon="5.94159">
        <ele>232.5</ele>
        <time>2012-07-15T17:06:41.1726493Z</time>
      </trkpt>
      <trkpt lat="47.17378" lon="5.93733">
        <ele>229.8</ele>
        <time>2012-07-15T17:06:41.1726493Z</time>
      </trkpt>
      <trkpt lat="47.17195" lon="5.93201">
        <ele>232</ele>
        <time>2012-07-15T17:06:41.1726493Z</time>
      </trkpt>
      <trkpt lat="47.17194" lon="5.93201">
        <ele>232</ele>
        <time>2012-07-15T17:06:41.1726493Z</time>
      </trkpt>
      <trkpt lat="47.17104" lon="5.92694">
        <ele>230.2</ele>
        <time>2012-07-15T17:06:41.1726493Z</time>
      </trkpt>
      <trkpt lat="47.17059" lon="5.91877">
        <ele>230.7</ele>
        <time>2012-07-15T17:06:41.1726493Z</time>
      </trkpt>
      <trkpt lat="47.16989" lon="5.91485">
        <ele>230.6</ele>
        <time>2012-07-15T17:06:41.1726493Z</time>
      </trkpt>
      <trkpt lat="47.17019" lon="5.91452">
        <ele>230.5</ele>
        <time>2012-07-15T17:06:41.1726493Z</time>
      </trkpt>
      <trkpt lat="47.17016" lon="5.91149">
        <ele>228.2</ele>
        <time>2012-07-15T17:06:41.1726493Z</time>
      </trkpt>
      <trkpt lat="47.17118" lon="5.90845">
        <ele>228.9</ele>
        <time>2012-07-15T17:06:41.1726493Z</time>
      </trkpt>
      <trkpt lat="47.17191" lon="5.90671">
        <ele>233.3</ele>
        <time>2012-07-15T17:06:41.1726493Z</time>
      </trkpt>
      <trkpt lat="47.17259" lon="5.90546">
        <ele>245.8</ele>
        <time>2012-07-15T17:06:41.1726493Z</time>
      </trkpt>
      <trkpt lat="47.17229" lon="5.90493">
        <ele>246.4</ele>
        <time>2012-07-15T17:06:41.1726493Z</time>
      </trkpt>
      <trkpt lat="47.17131" lon="5.90699">
        <ele>255.7</ele>
        <time>2012-07-15T17:06:41.1726493Z</time>
      </trkpt>
      <trkpt lat="47.17031" lon="5.90807">
        <ele>264</ele>
        <time>2012-07-15T17:06:41.1726493Z</time>
      </trkpt>
      <trkpt lat="47.16887" lon="5.90663">
        <ele>273.3</ele>
        <time>2012-07-15T17:06:41.1726493Z</time>
      </trkpt>
      <trkpt lat="47.16602" lon="5.90524">
        <ele>293</ele>
        <time>2012-07-15T17:06:41.1726493Z</time>
      </trkpt>
      <trkpt lat="47.1628" lon="5.90218">
        <ele>293.6</ele>
        <time>2012-07-15T17:06:41.1726493Z</time>
      </trkpt>
      <trkpt lat="47.15971" lon="5.90102">
        <ele>285.6</ele>
        <time>2012-07-15T17:06:41.1726493Z</time>
      </trkpt>
      <trkpt lat="47.15711" lon="5.9019">
        <ele>275.2</ele>
        <time>2012-07-15T17:06:41.1726493Z</time>
      </trkpt>
      <trkpt lat="47.15544" lon="5.90128">
        <ele>268.2</ele>
        <time>2012-07-15T17:06:41.1726493Z</time>
      </trkpt>
      <trkpt lat="47.15485" lon="5.89868">
        <ele>268.1</ele>
        <time>2012-07-15T17:06:41.1726493Z</time>
      </trkpt>
      <trkpt lat="47.15231" lon="5.8954">
        <ele>245.9</ele>
        <time>2012-07-15T17:06:41.1726493Z</time>
      </trkpt>
      <trkpt lat="47.1446" lon="5.89009">
        <ele>232.4</ele>
        <time>2012-07-15T17:06:41.1726493Z</time>
      </trkpt>
      <trkpt lat="47.1409" lon="5.88931">
        <ele>267.2</ele>
        <time>2012-07-15T17:06:41.1726493Z</time>
      </trkpt>
      <trkpt lat="47.13864" lon="5.89078">
        <ele>286.5</ele>
        <time>2012-07-15T17:06:41.1726493Z</time>
      </trkpt>
      <trkpt lat="47.13906" lon="5.88921">
        <ele>289.1</ele>
        <time>2012-07-15T17:06:41.1726493Z</time>
      </trkpt>
      <trkpt lat="47.1382" lon="5.8898">
        <ele>295.6</ele>
        <time>2012-07-15T17:06:41.1726493Z</time>
      </trkpt>
      <trkpt lat="47.13754" lon="5.89086">
        <ele>304.5</ele>
        <time>2012-07-15T17:06:41.1726493Z</time>
      </trkpt>
      <trkpt lat="47.1364" lon="5.89033">
        <ele>312.3</ele>
        <time>2012-07-15T17:06:41.1726493Z</time>
      </trkpt>
      <trkpt lat="47.13413" lon="5.88948">
        <ele>324</ele>
        <time>2012-07-15T17:06:41.1726493Z</time>
      </trkpt>
      <trkpt lat="47.13179" lon="5.88717">
        <ele>341</ele>
        <time>2012-07-15T17:06:41.1726493Z</time>
      </trkpt>
      <trkpt lat="47.12705" lon="5.88496">
        <ele>367.8</ele>
        <time>2012-07-15T17:06:41.1726493Z</time>
      </trkpt>
      <trkpt lat="47.12525" lon="5.8841">
        <ele>383.2</ele>
        <time>2012-07-15T17:06:41.1726493Z</time>
      </trkpt>
      <trkpt lat="47.12354" lon="5.88288">
        <ele>395.5</ele>
        <time>2012-07-15T17:06:41.1726493Z</time>
      </trkpt>
      <trkpt lat="47.12125" lon="5.8821">
        <ele>411.1</ele>
        <time>2012-07-15T17:06:41.1726493Z</time>
      </trkpt>
      <trkpt lat="47.11843" lon="5.88106">
        <ele>409.9</ele>
        <time>2012-07-15T17:06:41.1726493Z</time>
      </trkpt>
      <trkpt lat="47.11727" lon="5.87976">
        <ele>402.3</ele>
        <time>2012-07-15T17:06:41.1726493Z</time>
      </trkpt>
      <trkpt lat="47.11728" lon="5.87768">
        <ele>395.5</ele>
        <time>2012-07-15T17:06:41.1726493Z</time>
      </trkpt>
      <trkpt lat="47.11449" lon="5.87634">
        <ele>380.8</ele>
        <time>2012-07-15T17:06:41.1726493Z</time>
      </trkpt>
      <trkpt lat="47.1104" lon="5.87707">
        <ele>364.9</ele>
        <time>2012-07-15T17:06:41.1726493Z</time>
      </trkpt>
      <trkpt lat="47.10866" lon="5.87662">
        <ele>353.5</ele>
        <time>2012-07-15T17:06:41.1726493Z</time>
      </trkpt>
      <trkpt lat="47.10721" lon="5.8778">
        <ele>342</ele>
        <time>2012-07-15T17:06:41.1726493Z</time>
      </trkpt>
      <trkpt lat="47.10811" lon="5.88083">
        <ele>329</ele>
        <time>2012-07-15T17:06:41.1726493Z</time>
      </trkpt>
      <trkpt lat="47.10795" lon="5.88097">
        <ele>323.6</ele>
        <time>2012-07-15T17:06:41.1726493Z</time>
      </trkpt>
      <trkpt lat="47.10624" lon="5.87986">
        <ele>300.4</ele>
        <time>2012-07-15T17:06:41.1726493Z</time>
      </trkpt>
      <trkpt lat="47.10463" lon="5.87835">
        <ele>274.2</ele>
        <time>2012-07-15T17:06:41.1726493Z</time>
      </trkpt>
      <trkpt lat="47.10415" lon="5.87914">
        <ele>268</ele>
        <time>2012-07-15T17:06:41.1726493Z</time>
      </trkpt>
      <trkpt lat="47.10303" lon="5.88151">
        <ele>265.4</ele>
        <time>2012-07-15T17:06:41.1726493Z</time>
      </trkpt>
      <trkpt lat="47.10232" lon="5.88202">
        <ele>265</ele>
        <time>2012-07-15T17:06:41.1726493Z</time>
      </trkpt>
      <trkpt lat="47.10143" lon="5.88193">
        <ele>264</ele>
        <time>2012-07-15T17:06:41.1726493Z</time>
      </trkpt>
      <trkpt lat="47.10007" lon="5.8804">
        <ele>264.3</ele>
        <time>2012-07-15T17:06:41.1726493Z</time>
      </trkpt>
      <trkpt lat="47.09725" lon="5.87682">
        <ele>263.5</ele>
        <time>2012-07-15T17:06:41.1726493Z</time>
      </trkpt>
      <trkpt lat="47.093" lon="5.87068">
        <ele>262.6</ele>
        <time>2012-07-15T17:06:41.1726493Z</time>
      </trkpt>
      <trkpt lat="47.0858" lon="5.86484">
        <ele>261</ele>
        <time>2012-07-15T17:06:41.1726493Z</time>
      </trkpt>
      <trkpt lat="47.08007" lon="5.85682">
        <ele>281.9</ele>
        <time>2012-07-15T17:06:41.1726493Z</time>
      </trkpt>
      <trkpt lat="47.07905" lon="5.85445">
        <ele>291.4</ele>
        <time>2012-07-15T17:06:41.1726493Z</time>
      </trkpt>
      <trkpt lat="47.07634" lon="5.85244">
        <ele>294.7</ele>
        <time>2012-07-15T17:06:41.1726493Z</time>
      </trkpt>
      <trkpt lat="47.07629" lon="5.84494">
        <ele>310.6</ele>
        <time>2012-07-15T17:06:41.1726493Z</time>
      </trkpt>
      <trkpt lat="47.07301" lon="5.84039">
        <ele>311.8</ele>
        <time>2012-07-15T17:06:41.1726493Z</time>
      </trkpt>
      <trkpt lat="47.06999" lon="5.83899">
        <ele>316.8</ele>
        <time>2012-07-15T17:06:41.1726493Z</time>
      </trkpt>
      <trkpt lat="47.06659" lon="5.83467">
        <ele>299.5</ele>
        <time>2012-07-15T17:06:41.1726493Z</time>
      </trkpt>
      <trkpt lat="47.06234" lon="5.83156">
        <ele>277.7</ele>
        <time>2012-07-15T17:06:41.1726493Z</time>
      </trkpt>
      <trkpt lat="47.06002" lon="5.82646">
        <ele>257.2</ele>
        <time>2012-07-15T17:06:41.1726493Z</time>
      </trkpt>
      <trkpt lat="47.05902" lon="5.82511">
        <ele>249.7</ele>
        <time>2012-07-15T17:06:41.1726493Z</time>
      </trkpt>
      <trkpt lat="47.05577" lon="5.82476">
        <ele>249.1</ele>
        <time>2012-07-15T17:06:41.1726493Z</time>
      </trkpt>
      <trkpt lat="47.04995" lon="5.82542">
        <ele>260.7</ele>
        <time>2012-07-15T17:06:41.1726493Z</time>
      </trkpt>
      <trkpt lat="47.04428" lon="5.8241">
        <ele>260.9</ele>
        <time>2012-07-15T17:06:41.1726493Z</time>
      </trkpt>
      <trkpt lat="47.0373" lon="5.82265">
        <ele>248.1</ele>
        <time>2012-07-15T17:06:41.1726493Z</time>
      </trkpt>
      <trkpt lat="47.03601" lon="5.82434">
        <ele>248.6</ele>
        <time>2012-07-15T17:06:41.1726493Z</time>
      </trkpt>
      <trkpt lat="47.035" lon="5.82528">
        <ele>251.1</ele>
        <time>2012-07-15T17:06:41.1726493Z</time>
      </trkpt>
      <trkpt lat="47.03178" lon="5.82589">
        <ele>263</ele>
        <time>2012-07-15T17:06:41.1726493Z</time>
      </trkpt>
      <trkpt lat="47.02724" lon="5.82633">
        <ele>264.2</ele>
        <time>2012-07-15T17:06:41.1726493Z</time>
      </trkpt>
      <trkpt lat="47.02296" lon="5.82686">
        <ele>270</ele>
        <time>2012-07-15T17:06:41.1726493Z</time>
      </trkpt>
      <trkpt lat="47.0194" lon="5.8283">
        <ele>280.4</ele>
        <time>2012-07-15T17:06:41.1726493Z</time>
      </trkpt>
      <trkpt lat="47.01592" lon="5.82938">
        <ele>273.8</ele>
        <time>2012-07-15T17:06:41.1726493Z</time>
      </trkpt>
      <trkpt lat="47.0108" lon="5.82937">
        <ele>265.4</ele>
        <time>2012-07-15T17:06:41.1726493Z</time>
      </trkpt>
      <trkpt lat="47.00792" lon="5.82902">
        <ele>263.5</ele>
        <time>2012-07-15T17:06:41.1726493Z</time>
      </trkpt>
      <trkpt lat="47.00487" lon="5.82367">
        <ele>249.5</ele>
        <time>2012-07-15T17:06:41.1726493Z</time>
      </trkpt>
      <trkpt lat="47.00113" lon="5.8244">
        <ele>251</ele>
        <time>2012-07-15T17:06:41.1726493Z</time>
      </trkpt>
      <trkpt lat="47.00072" lon="5.82506">
        <ele>250</ele>
        <time>2012-07-15T17:06:41.1726493Z</time>
      </trkpt>
      <trkpt lat="46.99945" lon="5.82409">
        <ele>252.6</ele>
        <time>2012-07-15T17:06:41.1726493Z</time>
      </trkpt>
      <trkpt lat="46.99816" lon="5.82276">
        <ele>253.5</ele>
        <time>2012-07-15T17:06:41.1726493Z</time>
      </trkpt>
      <trkpt lat="46.99505" lon="5.82248">
        <ele>253</ele>
        <time>2012-07-15T17:06:41.1726493Z</time>
      </trkpt>
      <trkpt lat="46.98957" lon="5.8219">
        <ele>256.2</ele>
        <time>2012-07-15T17:06:41.1726493Z</time>
      </trkpt>
      <trkpt lat="46.98683" lon="5.82186">
        <ele>260.1</ele>
        <time>2012-07-15T17:06:41.1726493Z</time>
      </trkpt>
      <trkpt lat="46.98112" lon="5.81217">
        <ele>275</ele>
        <time>2012-07-15T17:06:41.1726493Z</time>
      </trkpt>
      <trkpt lat="46.97821" lon="5.80725">
        <ele>291.5</ele>
        <time>2012-07-15T17:06:41.1726493Z</time>
      </trkpt>
      <trkpt lat="46.97668" lon="5.80514">
        <ele>289</ele>
        <time>2012-07-15T17:06:41.1726493Z</time>
      </trkpt>
      <trkpt lat="46.97602" lon="5.80305">
        <ele>287</ele>
        <time>2012-07-15T17:06:41.1726493Z</time>
      </trkpt>
      <trkpt lat="46.97638" lon="5.80017">
        <ele>281.2</ele>
        <time>2012-07-15T17:06:41.1726493Z</time>
      </trkpt>
      <trkpt lat="46.97649" lon="5.79888">
        <ele>278</ele>
        <time>2012-07-15T17:06:41.1726493Z</time>
      </trkpt>
      <trkpt lat="46.9754" lon="5.79757">
        <ele>278</ele>
        <time>2012-07-15T17:06:41.1726493Z</time>
      </trkpt>
      <trkpt lat="46.97298" lon="5.79653">
        <ele>279.2</ele>
        <time>2012-07-15T17:06:41.1726493Z</time>
      </trkpt>
      <trkpt lat="46.96939" lon="5.79536">
        <ele>274.3</ele>
        <time>2012-07-15T17:06:41.1726493Z</time>
      </trkpt>
      <trkpt lat="46.96605" lon="5.79408">
        <ele>280.7</ele>
        <time>2012-07-15T17:06:41.1726493Z</time>
      </trkpt>
      <trkpt lat="46.96256" lon="5.79174">
        <ele>285.7</ele>
        <time>2012-07-15T17:06:41.1726493Z</time>
      </trkpt>
      <trkpt lat="46.95799" lon="5.78889">
        <ele>278</ele>
        <time>2012-07-15T17:06:41.1726493Z</time>
      </trkpt>
      <trkpt lat="46.95484" lon="5.78622">
        <ele>273.2</ele>
        <time>2012-07-15T17:06:41.1726493Z</time>
      </trkpt>
      <trkpt lat="46.95361" lon="5.78512">
        <ele>281.3</ele>
        <time>2012-07-15T17:06:41.1726493Z</time>
      </trkpt>
      <trkpt lat="46.95292" lon="5.78577">
        <ele>277.4</ele>
        <time>2012-07-15T17:06:41.1726493Z</time>
      </trkpt>
      <trkpt lat="46.95314" lon="5.78735">
        <ele>275.4</ele>
        <time>2012-07-15T17:06:41.1726493Z</time>
      </trkpt>
      <trkpt lat="46.95453" lon="5.78818">
        <ele>280.2</ele>
        <time>2012-07-15T17:06:41.1726493Z</time>
      </trkpt>
      <trkpt lat="46.95241" lon="5.78996">
        <ele>294.9</ele>
        <time>2012-07-15T17:06:41.1726493Z</time>
      </trkpt>
      <trkpt lat="46.94962" lon="5.7908">
        <ele>291.4</ele>
        <time>2012-07-15T17:06:41.1726493Z</time>
      </trkpt>
      <trkpt lat="46.94736" lon="5.79156">
        <ele>300.9</ele>
        <time>2012-07-15T17:06:41.1726493Z</time>
      </trkpt>
      <trkpt lat="46.94558" lon="5.7909">
        <ele>305.5</ele>
        <time>2012-07-15T17:06:41.1726493Z</time>
      </trkpt>
      <trkpt lat="46.94315" lon="5.78881">
        <ele>307.4</ele>
        <time>2012-07-15T17:06:41.1726493Z</time>
      </trkpt>
      <trkpt lat="46.94004" lon="5.78668">
        <ele>304</ele>
        <time>2012-07-15T17:06:41.1726493Z</time>
      </trkpt>
      <trkpt lat="46.93756" lon="5.78375">
        <ele>312.6</ele>
        <time>2012-07-15T17:06:41.1726493Z</time>
      </trkpt>
      <trkpt lat="46.93406" lon="5.78281">
        <ele>319.7</ele>
        <time>2012-07-15T17:06:41.1726493Z</time>
      </trkpt>
      <trkpt lat="46.93052" lon="5.78383">
        <ele>331.7</ele>
        <time>2012-07-15T17:06:41.1726493Z</time>
      </trkpt>
      <trkpt lat="46.92791" lon="5.78292">
        <ele>344.8</ele>
        <time>2012-07-15T17:06:41.1726493Z</time>
      </trkpt>
      <trkpt lat="46.92679" lon="5.78248">
        <ele>352.1</ele>
        <time>2012-07-15T17:06:41.1726493Z</time>
      </trkpt>
      <trkpt lat="46.926" lon="5.78136">
        <ele>351</ele>
        <time>2012-07-15T17:06:41.1726493Z</time>
      </trkpt>
      <trkpt lat="46.92434" lon="5.78122">
        <ele>346</ele>
        <time>2012-07-15T17:06:41.1726493Z</time>
      </trkpt>
      <trkpt lat="46.92353" lon="5.78008">
        <ele>345</ele>
        <time>2012-07-15T17:06:41.1726493Z</time>
      </trkpt>
      <trkpt lat="46.92189" lon="5.78245">
        <ele>347.4</ele>
        <time>2012-07-15T17:06:41.1726493Z</time>
      </trkpt>
      <trkpt lat="46.92048" lon="5.78208">
        <ele>348.1</ele>
        <time>2012-07-15T17:06:41.1726493Z</time>
      </trkpt>
      <trkpt lat="46.91756" lon="5.78175">
        <ele>363.9</ele>
        <time>2012-07-15T17:06:41.1726493Z</time>
      </trkpt>
      <trkpt lat="46.91626" lon="5.78202">
        <ele>368.9</ele>
        <time>2012-07-15T17:06:41.1726493Z</time>
      </trkpt>
      <trkpt lat="46.91514" lon="5.78371">
        <ele>363.5</ele>
        <time>2012-07-15T17:06:41.1726493Z</time>
      </trkpt>
      <trkpt lat="46.91497" lon="5.78531">
        <ele>365</ele>
        <time>2012-07-15T17:06:41.1726493Z</time>
      </trkpt>
      <trkpt lat="46.91456" lon="5.78491">
        <ele>360.9</ele>
        <time>2012-07-15T17:06:41.1726493Z</time>
      </trkpt>
      <trkpt lat="46.91388" lon="5.78282">
        <ele>345.6</ele>
        <time>2012-07-15T17:06:41.1726493Z</time>
      </trkpt>
      <trkpt lat="46.9137" lon="5.78186">
        <ele>343.4</ele>
        <time>2012-07-15T17:06:41.1726493Z</time>
      </trkpt>
      <trkpt lat="46.91233" lon="5.78152">
        <ele>334.8</ele>
        <time>2012-07-15T17:06:41.1726493Z</time>
      </trkpt>
      <trkpt lat="46.91029" lon="5.78091">
        <ele>325.5</ele>
        <time>2012-07-15T17:06:41.1726493Z</time>
      </trkpt>
      <trkpt lat="46.90834" lon="5.77957">
        <ele>308.6</ele>
        <time>2012-07-15T17:06:41.1726493Z</time>
      </trkpt>
      <trkpt lat="46.90759" lon="5.77922">
        <ele>305</ele>
        <time>2012-07-15T17:06:41.1726493Z</time>
      </trkpt>
      <trkpt lat="46.90659" lon="5.77934">
        <ele>300</ele>
        <time>2012-07-15T17:06:41.1726493Z</time>
      </trkpt>
      <trkpt lat="46.90522" lon="5.77543">
        <ele>298.3</ele>
        <time>2012-07-15T17:06:41.1726493Z</time>
      </trkpt>
      <trkpt lat="46.90211" lon="5.77184">
        <ele>292</ele>
        <time>2012-07-15T17:06:41.1726493Z</time>
      </trkpt>
      <trkpt lat="46.90034" lon="5.77325">
        <ele>293.8</ele>
        <time>2012-07-15T17:06:41.1726493Z</time>
      </trkpt>
      <trkpt lat="46.89957" lon="5.77224">
        <ele>296.5</ele>
        <time>2012-07-15T17:06:41.1726493Z</time>
      </trkpt>
      <trkpt lat="46.89795" lon="5.77167">
        <ele>300</ele>
        <time>2012-07-15T17:06:41.1726493Z</time>
      </trkpt>
      <trkpt lat="46.8966" lon="5.77096">
        <ele>304.2</ele>
        <time>2012-07-15T17:06:41.1726493Z</time>
      </trkpt>
      <trkpt lat="46.89443" lon="5.76931">
        <ele>315.1</ele>
        <time>2012-07-15T17:06:41.1726493Z</time>
      </trkpt>
      <trkpt lat="46.89418" lon="5.76909">
        <ele>316.5</ele>
        <time>2012-07-15T17:06:41.1726493Z</time>
      </trkpt>
      <trkpt lat="46.89435" lon="5.76848">
        <ele>321.1</ele>
        <time>2012-07-15T17:06:41.1726493Z</time>
      </trkpt>
      <trkpt lat="46.89525" lon="5.76809">
        <ele>328.5</ele>
        <time>2012-07-15T17:06:41.1726493Z</time>
      </trkpt>
      <trkpt lat="46.89594" lon="5.76495">
        <ele>346.5</ele>
        <time>2012-07-15T17:06:41.1726493Z</time>
      </trkpt>
      <trkpt lat="46.89575" lon="5.76485">
        <ele>350.5</ele>
        <time>2012-07-15T17:06:41.1726493Z</time>
      </trkpt>
      <trkpt lat="46.89506" lon="5.76592">
        <ele>356</ele>
        <time>2012-07-15T17:06:41.1726493Z</time>
      </trkpt>
      <trkpt lat="46.89354" lon="5.76564">
        <ele>367.3</ele>
        <time>2012-07-15T17:06:41.1726493Z</time>
      </trkpt>
      <trkpt lat="46.89235" lon="5.76593">
        <ele>380</ele>
        <time>2012-07-15T17:06:41.1726493Z</time>
      </trkpt>
      <trkpt lat="46.89124" lon="5.76509">
        <ele>387.8</ele>
        <time>2012-07-15T17:06:41.1726493Z</time>
      </trkpt>
      <trkpt lat="46.89056" lon="5.76503">
        <ele>394</ele>
        <time>2012-07-15T17:06:41.1726493Z</time>
      </trkpt>
      <trkpt lat="46.88915" lon="5.76374">
        <ele>409.2</ele>
        <time>2012-07-15T17:06:41.1726493Z</time>
      </trkpt>
      <trkpt lat="46.88759" lon="5.76339">
        <ele>424</ele>
        <time>2012-07-15T17:06:41.1726493Z</time>
      </trkpt>
      <trkpt lat="46.88592" lon="5.7618">
        <ele>437.8</ele>
        <time>2012-07-15T17:06:41.1726493Z</time>
      </trkpt>
      <trkpt lat="46.88422" lon="5.76052">
        <ele>450.2</ele>
        <time>2012-07-15T17:06:41.1726493Z</time>
      </trkpt>
      <trkpt lat="46.88304" lon="5.7597">
        <ele>455.2</ele>
        <time>2012-07-15T17:06:41.1726493Z</time>
      </trkpt>
      <trkpt lat="46.88161" lon="5.75764">
        <ele>462.9</ele>
        <time>2012-07-15T17:06:41.1726493Z</time>
      </trkpt>
      <trkpt lat="46.87945" lon="5.75556">
        <ele>476</ele>
        <time>2012-07-15T17:06:41.1726493Z</time>
      </trkpt>
      <trkpt lat="46.876" lon="5.7529">
        <ele>495.9</ele>
        <time>2012-07-15T17:06:41.1726493Z</time>
      </trkpt>
      <trkpt lat="46.8737" lon="5.75142">
        <ele>478.1</ele>
        <time>2012-07-15T17:06:41.1726493Z</time>
      </trkpt>
      <trkpt lat="46.87299" lon="5.74946">
        <ele>479.3</ele>
        <time>2012-07-15T17:06:41.1726493Z</time>
      </trkpt>
      <trkpt lat="46.87115" lon="5.74713">
        <ele>484.4</ele>
        <time>2012-07-15T17:06:41.1726493Z</time>
      </trkpt>
      <trkpt lat="46.86866" lon="5.74326">
        <ele>480.7</ele>
        <time>2012-07-15T17:06:41.1726493Z</time>
      </trkpt>
      <trkpt lat="46.86462" lon="5.73759">
        <ele>471.1</ele>
        <time>2012-07-15T17:06:41.1726493Z</time>
      </trkpt>
      <trkpt lat="46.86268" lon="5.73519">
        <ele>466.1</ele>
        <time>2012-07-15T17:06:41.1726493Z</time>
      </trkpt>
      <trkpt lat="46.86245" lon="5.73384">
        <ele>460.4</ele>
        <time>2012-07-15T17:06:41.1726493Z</time>
      </trkpt>
      <trkpt lat="46.86502" lon="5.73086">
        <ele>425.9</ele>
        <time>2012-07-15T17:06:41.1726493Z</time>
      </trkpt>
      <trkpt lat="46.86521" lon="5.72488">
        <ele>386.8</ele>
        <time>2012-07-15T17:06:41.1726493Z</time>
      </trkpt>
      <trkpt lat="46.86634" lon="5.72121">
        <ele>380.5</ele>
        <time>2012-07-15T17:06:41.1726493Z</time>
      </trkpt>
      <trkpt lat="46.86819" lon="5.71704">
        <ele>375.3</ele>
        <time>2012-07-15T17:06:41.1726493Z</time>
      </trkpt>
      <trkpt lat="46.86828" lon="5.71618">
        <ele>374</ele>
        <time>2012-07-15T17:06:41.1726493Z</time>
      </trkpt>
      <trkpt lat="46.86642" lon="5.71409">
        <ele>375.2</ele>
        <time>2012-07-15T17:06:41.1726493Z</time>
      </trkpt>
      <trkpt lat="46.86492" lon="5.71181">
        <ele>376</ele>
        <time>2012-07-15T17:06:41.1726493Z</time>
      </trkpt>
      <trkpt lat="46.86386" lon="5.70909">
        <ele>372.9</ele>
        <time>2012-07-15T17:06:41.1726493Z</time>
      </trkpt>
      <trkpt lat="46.86068" lon="5.70792">
        <ele>362.2</ele>
        <time>2012-07-15T17:06:41.1726493Z</time>
      </trkpt>
      <trkpt lat="46.85908" lon="5.70699">
        <ele>353.6</ele>
        <time>2012-07-15T17:06:41.1726493Z</time>
      </trkpt>
      <trkpt lat="46.85735" lon="5.708">
        <ele>349.5</ele>
        <time>2012-07-15T17:06:41.1726493Z</time>
      </trkpt>
      <trkpt lat="46.85695" lon="5.7095">
        <ele>344.2</ele>
        <time>2012-07-15T17:06:41.1726493Z</time>
      </trkpt>
      <trkpt lat="46.85552" lon="5.70968">
        <ele>335.3</ele>
        <time>2012-07-15T17:06:41.1726493Z</time>
      </trkpt>
      <trkpt lat="46.85302" lon="5.70854">
        <ele>330.6</ele>
        <time>2012-07-15T17:06:41.1726493Z</time>
      </trkpt>
      <trkpt lat="46.85105" lon="5.70685">
        <ele>322.7</ele>
        <time>2012-07-15T17:06:41.1726493Z</time>
      </trkpt>
      <trkpt lat="46.84935" lon="5.7066">
        <ele>306.4</ele>
        <time>2012-07-15T17:06:41.1726493Z</time>
      </trkpt>
      <trkpt lat="46.84849" lon="5.70572">
        <ele>294.7</ele>
        <time>2012-07-15T17:06:41.1726493Z</time>
      </trkpt>
      <trkpt lat="46.84831" lon="5.70596">
        <ele>296.3</ele>
        <time>2012-07-15T17:06:41.1726493Z</time>
      </trkpt>
      <trkpt lat="46.84661" lon="5.70498">
        <ele>295.7</ele>
        <time>2012-07-15T17:06:41.1726493Z</time>
      </trkpt>
      <trkpt lat="46.84422" lon="5.70533">
        <ele>299.6</ele>
        <time>2012-07-15T17:06:41.1726493Z</time>
      </trkpt>
      <trkpt lat="46.84209" lon="5.70568">
        <ele>305.5</ele>
        <time>2012-07-15T17:06:41.1726493Z</time>
      </trkpt>
      <trkpt lat="46.84162" lon="5.70522">
        <ele>307.8</ele>
        <time>2012-07-15T17:06:41.1726493Z</time>
      </trkpt>
      <trkpt lat="46.83878" lon="5.70386">
        <ele>314.9</ele>
        <time>2012-07-15T17:06:41.1726493Z</time>
      </trkpt>
      <trkpt lat="46.8364" lon="5.70282">
        <ele>318</ele>
        <time>2012-07-15T17:06:41.1726493Z</time>
      </trkpt>
      <trkpt lat="46.83406" lon="5.70359">
        <ele>323.9</ele>
        <time>2012-07-15T17:06:41.1726493Z</time>
      </trkpt>
      <trkpt lat="46.83347" lon="5.70402">
        <ele>325.8</ele>
        <time>2012-07-15T17:06:41.1726493Z</time>
      </trkpt>
      <trkpt lat="46.83238" lon="5.70319">
        <ele>325.3</ele>
        <time>2012-07-15T17:06:41.1726493Z</time>
      </trkpt>
      <trkpt lat="46.83126" lon="5.69802">
        <ele>308.5</ele>
        <time>2012-07-15T17:06:41.1726493Z</time>
      </trkpt>
      <trkpt lat="46.82979" lon="5.69752">
        <ele>312.8</ele>
        <time>2012-07-15T17:06:41.1726493Z</time>
      </trkpt>
      <trkpt lat="46.828" lon="5.69728">
        <ele>326</ele>
        <time>2012-07-15T17:06:41.1726493Z</time>
      </trkpt>
      <trkpt lat="46.82527" lon="5.69781">
        <ele>349.3</ele>
        <time>2012-07-15T17:06:41.1726493Z</time>
      </trkpt>
      <trkpt lat="46.82392" lon="5.69491">
        <ele>360.9</ele>
        <time>2012-07-15T17:06:41.1726493Z</time>
      </trkpt>
      <trkpt lat="46.82181" lon="5.69055">
        <ele>380.3</ele>
        <time>2012-07-15T17:06:41.1726493Z</time>
      </trkpt>
      <trkpt lat="46.81942" lon="5.68661">
        <ele>382.9</ele>
        <time>2012-07-15T17:06:41.1726493Z</time>
      </trkpt>
      <trkpt lat="46.81913" lon="5.68387">
        <ele>381.1</ele>
        <time>2012-07-15T17:06:41.1726493Z</time>
      </trkpt>
      <trkpt lat="46.81621" lon="5.67974">
        <ele>385</ele>
        <time>2012-07-15T17:06:41.1726493Z</time>
      </trkpt>
      <trkpt lat="46.81785" lon="5.67811">
        <ele>380</ele>
        <time>2012-07-15T17:06:41.1726493Z</time>
      </trkpt>
      <trkpt lat="46.819" lon="5.67578">
        <ele>365.2</ele>
        <time>2012-07-15T17:06:41.1726493Z</time>
      </trkpt>
      <trkpt lat="46.82222" lon="5.67095">
        <ele>366.6</ele>
        <time>2012-07-15T17:06:41.1726493Z</time>
      </trkpt>
      <trkpt lat="46.82315" lon="5.66176">
        <ele>348.7</ele>
        <time>2012-07-15T17:06:41.1726493Z</time>
      </trkpt>
      <trkpt lat="46.82175" lon="5.65064">
        <ele>315.5</ele>
        <time>2012-07-15T17:06:41.1726493Z</time>
      </trkpt>
      <trkpt lat="46.8228" lon="5.64642">
        <ele>297.1</ele>
        <time>2012-07-15T17:06:41.1726493Z</time>
      </trkpt>
      <trkpt lat="46.82502" lon="5.64371">
        <ele>305.1</ele>
        <time>2012-07-15T17:06:41.1726493Z</time>
      </trkpt>
      <trkpt lat="46.82365" lon="5.64128">
        <ele>307.4</ele>
        <time>2012-07-15T17:06:41.1726493Z</time>
      </trkpt>
      <trkpt lat="46.82359" lon="5.63775">
        <ele>295.5</ele>
        <time>2012-07-15T17:06:41.1726493Z</time>
      </trkpt>
      <trkpt lat="46.82028" lon="5.63464">
        <ele>278.1</ele>
        <time>2012-07-15T17:06:41.1726493Z</time>
      </trkpt>
      <trkpt lat="46.81726" lon="5.63093">
        <ele>297.4</ele>
        <time>2012-07-15T17:06:41.1726493Z</time>
      </trkpt>
      <trkpt lat="46.81345" lon="5.62675">
        <ele>303.9</ele>
        <time>2012-07-15T17:06:41.1726493Z</time>
      </trkpt>
      <trkpt lat="46.81224" lon="5.62327">
        <ele>316.5</ele>
        <time>2012-07-15T17:06:41.1726493Z</time>
      </trkpt>
      <trkpt lat="46.80981" lon="5.62274">
        <ele>331.4</ele>
        <time>2012-07-15T17:06:41.1726493Z</time>
      </trkpt>
      <trkpt lat="46.80635" lon="5.6206">
        <ele>322.8</ele>
        <time>2012-07-15T17:06:41.1726493Z</time>
      </trkpt>
      <trkpt lat="46.80156" lon="5.61926">
        <ele>321.9</ele>
        <time>2012-07-15T17:06:41.1726493Z</time>
      </trkpt>
      <trkpt lat="46.79721" lon="5.61873">
        <ele>327.2</ele>
        <time>2012-07-15T17:06:41.1726493Z</time>
      </trkpt>
      <trkpt lat="46.79346" lon="5.6176">
        <ele>342.1</ele>
        <time>2012-07-15T17:06:41.1726493Z</time>
      </trkpt>
      <trkpt lat="46.79021" lon="5.61661">
        <ele>342.8</ele>
        <time>2012-07-15T17:06:41.1726493Z</time>
      </trkpt>
      <trkpt lat="46.7863" lon="5.615">
        <ele>352.3</ele>
        <time>2012-07-15T17:06:41.1726493Z</time>
      </trkpt>
      <trkpt lat="46.78312" lon="5.61525">
        <ele>339.4</ele>
        <time>2012-07-15T17:06:41.1726493Z</time>
      </trkpt>
      <trkpt lat="46.77864" lon="5.61458">
        <ele>368.6</ele>
        <time>2012-07-15T17:06:41.1726493Z</time>
      </trkpt>
      <trkpt lat="46.77552" lon="5.61614">
        <ele>384.2</ele>
        <time>2012-07-15T17:06:41.1726493Z</time>
      </trkpt>
      <trkpt lat="46.77401" lon="5.61812">
        <ele>382.8</ele>
        <time>2012-07-15T17:06:41.1726493Z</time>
      </trkpt>
      <trkpt lat="46.77123" lon="5.61884">
        <ele>376.7</ele>
        <time>2012-07-15T17:06:41.1726493Z</time>
      </trkpt>
      <trkpt lat="46.76987" lon="5.61919">
        <ele>375.5</ele>
        <time>2012-07-15T17:06:41.1726493Z</time>
      </trkpt>
      <trkpt lat="46.77016" lon="5.617">
        <ele>363.4</ele>
        <time>2012-07-15T17:06:41.1726493Z</time>
      </trkpt>
      <trkpt lat="46.76904" lon="5.61606">
        <ele>342.6</ele>
        <time>2012-07-15T17:06:41.1726493Z</time>
      </trkpt>
      <trkpt lat="46.76862" lon="5.61633">
        <ele>343.2</ele>
        <time>2012-07-15T17:06:41.1726493Z</time>
      </trkpt>
      <trkpt lat="46.76826" lon="5.61624">
        <ele>335.8</ele>
        <time>2012-07-15T17:06:41.1726493Z</time>
      </trkpt>
      <trkpt lat="46.76814" lon="5.61448">
        <ele>315.1</ele>
        <time>2012-07-15T17:06:41.1726493Z</time>
      </trkpt>
      <trkpt lat="46.76751" lon="5.614">
        <ele>310.3</ele>
        <time>2012-07-15T17:06:41.1726493Z</time>
      </trkpt>
      <trkpt lat="46.76716" lon="5.61509">
        <ele>307.4</ele>
        <time>2012-07-15T17:06:41.1726493Z</time>
      </trkpt>
      <trkpt lat="46.76617" lon="5.61486">
        <ele>301.6</ele>
        <time>2012-07-15T17:06:41.1726493Z</time>
      </trkpt>
      <trkpt lat="46.76528" lon="5.61452">
        <ele>297.1</ele>
        <time>2012-07-15T17:06:41.1726493Z</time>
      </trkpt>
      <trkpt lat="46.76451" lon="5.61334">
        <ele>291.1</ele>
        <time>2012-07-15T17:06:41.1726493Z</time>
      </trkpt>
      <trkpt lat="46.76326" lon="5.61252">
        <ele>282.2</ele>
        <time>2012-07-15T17:06:41.1726493Z</time>
      </trkpt>
      <trkpt lat="46.7617" lon="5.61257">
        <ele>274</ele>
        <time>2012-07-15T17:06:41.1726493Z</time>
      </trkpt>
      <trkpt lat="46.76004" lon="5.61476">
        <ele>255.9</ele>
        <time>2012-07-15T17:06:41.1726493Z</time>
      </trkpt>
      <trkpt lat="46.7592" lon="5.61509">
        <ele>253.1</ele>
        <time>2012-07-15T17:06:41.1726493Z</time>
      </trkpt>
      <trkpt lat="46.75817" lon="5.61567">
        <ele>252.2</ele>
        <time>2012-07-15T17:06:41.1726493Z</time>
      </trkpt>
      <trkpt lat="46.75546" lon="5.61177">
        <ele>255.3</ele>
        <time>2012-07-15T17:06:41.1726493Z</time>
      </trkpt>
      <trkpt lat="46.7546" lon="5.61232">
        <ele>256.2</ele>
        <time>2012-07-15T17:06:41.1726493Z</time>
      </trkpt>
      <trkpt lat="46.75341" lon="5.61375">
        <ele>257</ele>
        <time>2012-07-15T17:06:41.1726493Z</time>
      </trkpt>
      <trkpt lat="46.7528" lon="5.61628">
        <ele>258</ele>
        <time>2012-07-15T17:06:41.1726493Z</time>
      </trkpt>
      <trkpt lat="46.75166" lon="5.61761">
        <ele>259.6</ele>
        <time>2012-07-15T17:06:41.1726493Z</time>
      </trkpt>
      <trkpt lat="46.75005" lon="5.61934">
        <ele>260.5</ele>
        <time>2012-07-15T17:06:41.1726493Z</time>
      </trkpt>
      <trkpt lat="46.74928" lon="5.6206">
        <ele>259.6</ele>
        <time>2012-07-15T17:06:41.1726493Z</time>
      </trkpt>
      <trkpt lat="46.74777" lon="5.62295">
        <ele>261</ele>
        <time>2012-07-15T17:06:41.1726493Z</time>
      </trkpt>
      <trkpt lat="46.74696" lon="5.62488">
        <ele>263</ele>
        <time>2012-07-15T17:06:41.1726493Z</time>
      </trkpt>
      <trkpt lat="46.74493" lon="5.62648">
        <ele>266.1</ele>
        <time>2012-07-15T17:06:41.1726493Z</time>
      </trkpt>
      <trkpt lat="46.74316" lon="5.62774">
        <ele>269.4</ele>
        <time>2012-07-15T17:06:41.1726493Z</time>
      </trkpt>
      <trkpt lat="46.74201" lon="5.62983">
        <ele>278.5</ele>
        <time>2012-07-15T17:06:41.1726493Z</time>
      </trkpt>
      <trkpt lat="46.73946" lon="5.63186">
        <ele>276.3</ele>
        <time>2012-07-15T17:06:41.1726493Z</time>
      </trkpt>
      <trkpt lat="46.73717" lon="5.6348">
        <ele>273.9</ele>
        <time>2012-07-15T17:06:41.1726493Z</time>
      </trkpt>
      <trkpt lat="46.73438" lon="5.63499">
        <ele>278</ele>
        <time>2012-07-15T17:06:41.1726493Z</time>
      </trkpt>
      <trkpt lat="46.73298" lon="5.63643">
        <ele>279.8</ele>
        <time>2012-07-15T17:06:41.1726493Z</time>
      </trkpt>
      <trkpt lat="46.73004" lon="5.63633">
        <ele>277.6</ele>
        <time>2012-07-15T17:06:41.1726493Z</time>
      </trkpt>
      <trkpt lat="46.72759" lon="5.6379">
        <ele>281.4</ele>
        <time>2012-07-15T17:06:41.1726493Z</time>
      </trkpt>
      <trkpt lat="46.72283" lon="5.63528">
        <ele>286.7</ele>
        <time>2012-07-15T17:06:41.1726493Z</time>
      </trkpt>
      <trkpt lat="46.7197" lon="5.63293">
        <ele>288.8</ele>
        <time>2012-07-15T17:06:41.1726493Z</time>
      </trkpt>
      <trkpt lat="46.71527" lon="5.63218">
        <ele>289</ele>
        <time>2012-07-15T17:06:41.1726493Z</time>
      </trkpt>
      <trkpt lat="46.71281" lon="5.6365">
        <ele>292.6</ele>
        <time>2012-07-15T17:06:41.1726493Z</time>
      </trkpt>
      <trkpt lat="46.71254" lon="5.63814">
        <ele>294</ele>
        <time>2012-07-15T17:06:41.1726493Z</time>
      </trkpt>
      <trkpt lat="46.7121" lon="5.64044">
        <ele>297.2</ele>
        <time>2012-07-15T17:06:41.1726493Z</time>
      </trkpt>
    </trkseg>
  </trk>
</gpx>